When you browse on this site, cookies collect data to enhance your experience and personalize the content and advertising you see.
Visit our Privacy Policy to learn more. By continuing to use the site, you agree to this use of cookies and data.
  • In United Kingdom
  • List of Countries
  • For 7 days
  • Water Temperature
  • Weather Map
  • Weather Widgets
  • user-avatar
    Login

    Hourly Weather Sharky

    Today, 23 August, Friday

    Time Temperature Precipitation Wind Pressure Humidity
    00:00 +16°C° 0 mm 3 mps 742 mmHg 91%
    01:00 +16°C° 0 mm 3 mps 742 mmHg 92%
    02:00 +14°C° 0 mm 3 mps 742 mmHg 93%
    03:00 +14°C° 0 mm 3 mps 742 mmHg 94%
    04:00 +14°C° 0 mm 3 mps 741 mmHg 95%
    05:00 +13°C° 0 mm 3 mps 741 mmHg 96%
    06:00 +16°C° 0 mm 3 mps 742 mmHg 91%
    07:00 +17°C° 0 mm 3 mps 742 mmHg 85%
    08:00 +18°C° 0 mm 4 mps 742 mmHg 79%
    09:00 +20°C° 0 mm 4 mps 742 mmHg 73%
    10:00 +22°C° 0 mm 4 mps 742 mmHg 67%
    11:00 +23°C° 0 mm 4 mps 742 mmHg 61%
    12:00 +25°C° 0 mm 4 mps 742 mmHg 59%
    13:00 +25°C° 0 mm 4 mps 742 mmHg 57%
    14:00 +26°C° 0 mm 5 mps 742 mmHg 55%
    15:00 +26°C° 0 mm 5 mps 741 mmHg 56%
    16:00 +25°C° 0 mm 5 mps 741 mmHg 56%
    17:00 +25°C° 0 mm 5 mps 741 mmHg 57%
    18:00 +22°C° 0 mm 4 mps 741 mmHg 62%
    19:00 +20°C° 0 mm 4 mps 741 mmHg 68%
    20:00 +18°C° 0 mm 3 mps 741 mmHg 73%
    21:00 +17°C° 0 mm 3 mps 741 mmHg 74%
    22:00 +17°C° 0 mm 3 mps 741 mmHg 75%
    23:00 +16°C° 0 mm 3 mps 741 mmHg 75%

    Tomorrow, 24 August, Saturday

    Time Temperature Precipitation Wind Pressure Humidity
    00:00 +16°C° 0 mm 3 mps 741 mmHg 77%
    01:00 +14°C° 0 mm 3 mps 741 mmHg 79%
    02:00 +15°C° 0 mm 2 mps 741 mmHg 81%
    03:00 +14°C° 0 mm 2 mps 741 mmHg 84%
    04:00 +14°C° 0 mm 2 mps 741 mmHg 86%
    05:00 +14°C° 0 mm 2 mps 741 mmHg 89%
    06:00 +14°C° 0 mm 3 mps 741 mmHg 83%
    07:00 +17°C° 0 mm 3 mps 741 mmHg 76%
    08:00 +18°C° 0 mm 3 mps 742 mmHg 70%
    09:00 +20°C° 0 mm 3 mps 742 mmHg 62%
    10:00 +21°C° 0 mm 3 mps 742 mmHg 55%
    11:00 +24°C° 0 mm 3 mps 742 mmHg 47%
    12:00 +25°C° 0 mm 3 mps 741 mmHg 45%
    13:00 +25°C° 0 mm 3 mps 741 mmHg 44%
    14:00 +26°C° 0 mm 3 mps 741 mmHg 42%
    15:00 +26°C° 0 mm 3 mps 741 mmHg 44%
    16:00 +25°C° 0 mm 3 mps 741 mmHg 47%
    17:00 +25°C° 0 mm 3 mps 740 mmHg 49%
    18:00 +22°C° 0 mm 3 mps 740 mmHg 53%
    19:00 +20°C° 0 mm 3 mps 740 mmHg 56%
    20:00 +18°C° 0 mm 3 mps 740 mmHg 60%
    21:00 +18°C° 0 mm 3 mps 740 mmHg 61%
    22:00 +17°C° 0 mm 3 mps 741 mmHg 62%
    23:00 +17°C° 0 mm 3 mps 741 mmHg 63%

    Day after tomorrow, 25 August, Sunday

    Time Temperature Precipitation Wind Pressure Humidity
    00:00 +16°C° 0 mm 3 mps 740 mmHg 64%
    01:00 +16°C° 0 mm 3 mps 740 mmHg 65%
    02:00 +15°C° 0 mm 2 mps 740 mmHg 66%
    03:00 +15°C° 0 mm 2 mps 740 mmHg 66%
    04:00 +14°C° 0 mm 2 mps 740 mmHg 67%
    05:00 +14°C° 0 mm 2 mps 740 mmHg 68%
    06:00 +16°C° 0 mm 3 mps 740 mmHg 66%
    07:00 +17°C° 0 mm 3 mps 740 mmHg 64%
    08:00 +19°C° 0 mm 3 mps 740 mmHg 62%
    09:00 +21°C° 0 mm 3 mps 741 mmHg 57%
    10:00 +24°C° 0 mm 3 mps 741 mmHg 52%
    11:00 +25°C° 0 mm 3 mps 741 mmHg 47%
    12:00 +26°C° 0 mm 3 mps 741 mmHg 44%
    13:00 +27°C° 0 mm 3 mps 740 mmHg 42%
    14:00 +27°C° 0 mm 3 mps 740 mmHg 39%
    15:00 +27°C° 0 mm 3 mps 740 mmHg 42%
    16:00 +26°C° 0 mm 3 mps 740 mmHg 44%
    17:00 +26°C° 0 mm 3 mps 740 mmHg 47%
    18:00 +24°C° 0 mm 3 mps 740 mmHg 53%
    19:00 +21°C° 0 mm 3 mps 740 mmHg 59%
    20:00 +18°C° 0 mm 3 mps 740 mmHg 65%
    21:00 +18°C° 0 mm 3 mps 740 mmHg 66%
    22:00 +17°C° 0 mm 3 mps 740 mmHg 66%
    23:00 +16°C° 0 mm 3 mps 740 mmHg 67%

    26 August, Monday

    Time Temperature Precipitation Wind Pressure Humidity
    00:00 +16°C° 0 mm 3 mps 740 mmHg 67%
    01:00 +16°C° 0 mm 3 mps 740 mmHg 68%
    02:00 +14°C° 0 mm 3 mps 740 mmHg 68%
    03:00 +14°C° 0 mm 3 mps 740 mmHg 70%
    04:00 +14°C° 0 mm 3 mps 740 mmHg 72%
    05:00 +14°C° 0 mm 2 mps 740 mmHg 74%
    06:00 +16°C° 0 mm 3 mps 740 mmHg 70%
    07:00 +18°C° 0 mm 3 mps 740 mmHg 66%
    08:00 +19°C° 0 mm 3 mps 740 mmHg 62%
    09:00 +21°C° 0 mm 3 mps 740 mmHg 56%
    10:00 +25°C° 0 mm 3 mps 740 mmHg 51%
    11:00 +27°C° 0 mm 4 mps 741 mmHg 45%
    12:00 +27°C° 0 mm 3 mps 740 mmHg 44%
    13:00 +28°C° 0 mm 3 mps 740 mmHg 42%
    14:00 +28°C° 0 mm 3 mps 740 mmHg 41%
    15:00 +28°C° 0 mm 3 mps 739 mmHg 43%
    16:00 +28°C° 0 mm 3 mps 739 mmHg 44%
    17:00 +28°C° 0 mm 3 mps 739 mmHg 46%
    18:00 +26°C° 0 mm 3 mps 739 mmHg 52%
    19:00 +24°C° 0 mm 3 mps 739 mmHg 58%
    20:00 +20°C° 0 mm 3 mps 738 mmHg 64%
    21:00 +20°C° 0 mm 3 mps 739 mmHg 67%
    22:00 +19°C° 0 mm 4 mps 739 mmHg 69%
    23:00 +19°C° 0 mm 4 mps 739 mmHg 71%

    27 August, Tuesday

    Time Temperature Precipitation Wind Pressure Humidity
    00:00 +18°C° 0 mm 3 mps 739 mmHg 73%
    01:00 +18°C° 0 mm 3 mps 739 mmHg 75%
    02:00 +17°C° 0 mm 3 mps 739 mmHg 77%
    03:00 +17°C° 0 mm 3 mps 738 mmHg 76%
    04:00 +16°C° 0 mm 2 mps 738 mmHg 76%
    05:00 +16°C° 0 mm 2 mps 738 mmHg 76%
    06:00 +18°C° 0 mm 2 mps 738 mmHg 72%
    07:00 +20°C° 0 mm 2 mps 739 mmHg 67%
    08:00 +21°C° 0 mm 2 mps 739 mmHg 63%
    09:00 +24°C° 0 mm 2 mps 739 mmHg 57%
    10:00 +26°C° 0 mm 2 mps 739 mmHg 51%
    11:00 +28°C° 0 mm 2 mps 739 mmHg 45%
    12:00 +28°C° 0 mm 2 mps 739 mmHg 42%
    13:00 +29°C° 0 mm 2 mps 738 mmHg 40%
    14:00 +30°C° 0 mm 2 mps 738 mmHg 37%
    15:00 +29°C° 0 mm 2 mps 738 mmHg 40%
    16:00 +29°C° 0 mm 2 mps 738 mmHg 42%
    17:00 +28°C° 0 mm 2 mps 738 mmHg 45%
    18:00 +26°C° 0 mm 3 mps 738 mmHg 52%
    19:00 +24°C° 0 mm 3 mps 738 mmHg 58%
    20:00 +21°C° 0 mm 3 mps 738 mmHg 65%
    21:00 +20°C° 0 mm 3 mps 738 mmHg 67%
    22:00 +20°C° 0 mm 3 mps 738 mmHg 69%
    23:00 +19°C° 0 mm 3 mps 738 mmHg 72%

    28 August, Wednesday

    Time Temperature Precipitation Wind Pressure Humidity
    00:00 +18°C° 0 mm 3 mps 738 mmHg 72%
    01:00 +18°C° 0 mm 2 mps 739 mmHg 72%
    02:00 +17°C° 0 mm 2 mps 739 mmHg 73%
    03:00 +17°C° 0 mm 2 mps 739 mmHg 74%
    04:00 +17°C° 0 mm 2 mps 739 mmHg 75%
    05:00 +16°C° 0 mm 2 mps 739 mmHg 77%
    06:00 +18°C° 0 mm 2 mps 739 mmHg 72%
    07:00 +20°C° 0 mm 2 mps 739 mmHg 67%
    08:00 +21°C° 0 mm 2 mps 739 mmHg 62%
    09:00 +24°C° 0 mm 2 mps 739 mmHg 57%
    10:00 +25°C° 0 mm 2 mps 739 mmHg 53%
    11:00 +27°C° 0 mm 3 mps 739 mmHg 48%
    12:00 +27°C° 0 mm 3 mps 739 mmHg 47%
    13:00 +28°C° 0 mm 3 mps 739 mmHg 45%
    14:00 +28°C° 0 mm 3 mps 739 mmHg 43%
    15:00 +28°C° 0 mm 3 mps 738 mmHg 45%
    16:00 +27°C° 0 mm 3 mps 738 mmHg 48%
    17:00 +27°C° 0 mm 3 mps 738 mmHg 50%
    18:00 +25°C° 0 mm 3 mps 738 mmHg 58%
    19:00 +22°C° 0 mm 4 mps 738 mmHg 66%
    20:00 +20°C° 0 mm 4 mps 738 mmHg 74%
    21:00 +19°C° 0 mm 4 mps 738 mmHg 72%
    22:00 +18°C° 0 mm 3 mps 738 mmHg 70%
    23:00 +17°C° 0 mm 3 mps 738 mmHg 68%
    Show more